Location: Cartignies
(50.0929°N, 3.8447°E)
Time: 15:02:59
(UTC+00:00)

Cosmos 1452 Rocket - Pass Details

Date: 12 January 2026
Orbit: 762 x 771 km, 74.1° (Epoch: 16 February)

Event Time Altitude Azimuth Distance (km) Brightness Sun altitude
Rises 19:10:54 0° 213° (SSW) 3,222 7.2 -28.7°
Reaches altitude 10° 19:13:17 10° 217° (SW) 2,302 6.4 -29.1°
Enters shadow 19:18:24 60° 295° (WNW) 877 3.9 -29.9°
